Location: Cheyres
(46.8153°N, 6.7877°E)
Time: 11:14:56
(UTC+00:00)

ISS - Visible Passes

Search period start: 20 January 2022 00:00
Search period end: 30 January 2022 00:00
Orbit: 413 x 422 km, 51.6° (Epoch: 20 January)

Date Brightness Start Highest point End Pass type
(mag) Time Alt. Az. Time Alt. Az. Time Alt. Az.
20 Jan -2.4 17:13:53 10° SSW 17:16:44 26° SE 17:18:51 15° E visible
20 Jan -1.7 18:50:01 10° WSW 18:51:48 29° W 18:51:48 29° W visible
21 Jan -3.9 18:01:58 10° WSW 18:05:18 88° NNW 18:05:54 58° ENE visible
22 Jan -3.6 17:14:02 10° SW 17:17:20 62° SSE 17:19:56 15° ENE visible
22 Jan -1.7 18:51:03 10° W 18:52:52 26° WNW 18:52:52 26° WNW visible
23 Jan -3.2 18:02:53 10° W 18:06:08 49° NNW 18:06:52 40° NNE visible
24 Jan -3.6 17:14:45 10° WSW 17:18:04 64° NNW 17:20:50 14° ENE visible
24 Jan -1.6 18:52:07 10° WNW 18:53:46 23° NW 18:53:46 23° NW visible
25 Jan -2.8 18:03:56 10° WNW 18:07:03 36° N 18:07:43 32° NNE visible
26 Jan -3.0 17:15:43 10° W 17:18:55 41° NNW 17:21:39 13° ENE visible
26 Jan -1.6 18:53:00 10° WNW 18:54:34 23° NW 18:54:34 23° NW visible
27 Jan -2.8 18:04:53 10° WNW 18:07:59 34° N 18:08:30 32° NNE visible
28 Jan -2.7 17:16:42 10° WNW 17:19:48 34° N 17:22:27 13° ENE visible
28 Jan -1.8 18:53:43 10° WNW 18:55:23 26° NW 18:55:23 26° NW visible
29 Jan -3.2 18:05:38 10° WNW 18:08:51 42° NNE 18:09:22 38° NE visible
